QPF
0.01 0.01 0.02 0.02 0.02 0.03 0.05 0.05 0.05 0.04 0.05 0.05 0.05 0.05 0.06 0.06 0.06 0.05 0.03 0.03 0.04 0.04 0.06 0.06 0.08 0.08 0.09 0.09 0.10 0.10 0.09 0.10 0.13 0.14 0.13 0.11 0.08 0.08 0.06 0.05 0.05 0.06 0.05
0.01 0.02 0.02 0.02 0.02 0.03 0.04 0.05 0.06 0.05 0.05 0.05 0.06 0.06 0.06 0.05 0.05 0.04 0.03 0.02 0.02 0.05 0.09 0.09 0.07 0.07 0.08 0.07 0.07 0.08 0.08 0.07 0.08 0.10 0.11 0.11 0.10 0.08 0.06 0.07 0.06 0.06 0.06
0.02 0.03 0.05 0.03 0.03 0.03 0.03 0.03 0.05 0.05 0.04 0.05 0.05 0.05 0.05 0.05 0.05 0.06 0.06 0.04 0.03 0.05 0.07 0.08 0.07 0.07 0.07 0.07 0.07 0.07 0.08 0.06 0.07 0.09 0.10 0.11 0.10 0.08 0.07 0.06 0.06 0.07 0.06
0.02 0.03 0.04 0.04 0.03 0.03 0.03 0.03 0.04 0.05 0.04 0.04 0.05 0.05 0.05 0.05 0.08 0.08 0.07 0.06 0.04 0.04 0.04 0.05 0.07 0.08 0.08 0.08 0.07 0.09 0.11 0.11 0.09 0.09 0.09 0.09 0.11 0.11 0.10 0.08 0.07 0.07 0.05
0.01 0.02 0.02 0.03 0.02 0.02 0.02 0.03 0.03 0.05 0.05 0.04 0.04 0.06 0.06 0.08 0.09 0.09 0.08 0.07 0.05 0.04 0.04 0.07 0.08 0.08 0.07 0.09 0.11 0.12 0.10 0.11 0.12 0.11 0.09 0.08 0.10 0.11 0.10 0.09 0.09 0.08 0.06
0.01 0.01 0.02 0.03 0.03 0.02 0.02 0.03 0.03 0.04 0.06 0.05 0.04 0.05 0.07 0.09 0.10 0.12 0.10 0.09 0.07 0.07 0.06 0.07 0.08 0.07 0.06 0.08 0.09 0.09 0.11 0.11 0.10 0.09 0.08 0.08 0.08 0.09 0.11 0.10 0.08 0.07 0.06
0.02 0.03 0.02 0.01 0.02 0.02 0.02 0.02 0.03 0.04 0.05 0.05 0.05 0.05 0.06 0.07 0.09 0.09 0.08 0.07 0.05 0.05 0.05 0.04 0.04 0.05 0.05 0.07 0.07 0.07 0.08 0.09 0.09 0.08 0.08 0.07 0.07 0.09 0.10 0.09 0.06 0.06 0.07
0.03 0.04 0.04 0.02 0.02 0.03 0.04 0.03 0.03 0.04 0.05 0.06 0.07 0.07 0.06 0.05 0.05 0.06 0.06 0.05 0.03 0.02 0.02 0.02 0.02 0.03 0.04 0.04 0.04 0.04 0.05 0.07 0.07 0.05 0.06 0.06 0.05 0.06 0.07 0.06 0.06 0.06 0.07
0.02 0.03 0.05 0.04 0.05 0.05 0.05 0.04 0.03 0.04 0.05 0.06 0.06 0.05 0.05 0.04 0.04 0.06 0.06 0.05 0.05 0.04 0.03 0.02 0.02 0.03 0.04 0.04 0.04 0.05 0.05 0.05 0.04 0.04 0.04 0.04 0.04 0.05 0.05 0.07 0.08 0.07 0.07
0.02 0.02 0.03 0.04 0.04 0.04 0.04 0.03 0.03 0.04 0.05 0.04 0.03 0.03 0.03 0.03 0.03 0.04 0.04 0.05 0.05 0.04 0.03 0.03 0.04 0.04 0.04 0.04 0.04 0.04 0.05 0.04 0.02 0.03 0.04 0.03 0.03 0.04 0.04 0.05 0.06 0.06 0.06
0.02 0.01 0.02 0.02 0.02 0.01 0.01 0.02 0.02 0.03 0.03 0.02 0.03 0.02 0.03 0.03 0.02 0.02 0.03 0.04 0.04 0.03 0.03 0.03 0.03 0.02 0.02 0.02 0.03 0.03 0.04 0.04 0.03 0.03 0.03 0.03 0.03 0.04 0.04 0.04 0.04 0.04 0.05
0.02 0.01 0.01 0.01 0.01 0.01 0.01 0.01 0.02 0.03 0.03 0.03 0.03 0.03 0.03 0.03 0.02 0.02 0.03 0.05 0.05 0.05 0.04 0.04 0.03 0.02 0.01 0.01 0.02 0.02 0.03 0.03 0.03 0.03 0.03 0.03 0.02 0.03 0.03 0.03 0.03 0.03 0.03
0.02 0.02 0.02 0.01 0.01 0.01 0.01 0.01 0.02 0.03 0.03 0.04 0.04 0.04 0.03 0.02 0.02 0.04 0.05 0.05 0.05 0.04 0.03 0.03 0.03 0.02 0.02 0.01 0.01 0.02 0.02 0.02 0.02 0.02 0.02 0.02 0.03 0.03 0.02 0.02 0.02 0.02 0.02
0.03 0.03 0.03 0.02 0.02 0.02 0.02 0.03 0.04 0.04 0.03 0.04 0.04 0.04 0.03 0.04 0.04 0.05 0.05 0.04 0.04 0.04 0.04 0.03 0.02 0.02 0.02 0.01 0.01 0.01 0.02 0.02 0.02 0.02 0.02 0.02 0.02 0.03 0.03 0.02 0.02 0.02 0.03
0.02 0.03 0.02 0.02 0.02 0.03 0.04 0.03 0.03 0.02 0.03 0.04 0.03 0.03 0.03 0.05 0.06 0.06 0.05 0.04 0.04 0.04 0.04 0.04 0.03 0.03 0.02 0.01 0.01 0.01 0.01 0.01 0.02 0.02 0.02 0.02 0.02 0.02 0.02 0.01 0.02 0.03 0.04
0.01 0.01 0.01 0.01 0.02 0.02 0.02 0.02 0.02 0.02 0.04 0.04 0.03 0.03 0.04 0.05 0.04 0.05 0.05 0.05 0.05 0.05 0.05 0.07 0.05 0.04 0.02 0.02 0.01 0.00 0.00 0.01 0.02 0.02 0.02 0.02 0.01 0.01 0.01 0.01 0.01 0.02 0.02
0.01 0.01 0.02 0.02 0.02 0.02 0.02 0.02 0.02 0.03 0.04 0.04 0.03 0.03 0.02 0.03 0.04 0.04 0.05 0.06 0.08 0.08 0.09 0.10 0.09 0.07 0.05 0.02 0.01 0.00 0.01 0.02 0.02 0.02 0.02 0.02 0.01 0.01 0.01 0.01 0.01 0.01 0.01
0.03 0.02 0.02 0.02 0.02 0.02 0.02 0.02 0.02 0.02 0.02 0.02 0.02 0.02 0.02 0.02 0.03 0.05 0.05 0.05 0.06 0.06 0.06 0.05 0.06 0.07 0.05 0.02 0.01 0.00 0.01 0.02 0.02 0.02 0.02 0.02 0.02 0.02 0.02 0.02 0.02 0.01 0.02
0.02 0.02 0.02 0.01 0.02 0.02 0.02 0.02 0.02 0.03 0.02 0.02 0.02 0.02 0.02 0.02 0.03 0.04 0.04 0.05 0.05 0.05 0.04 0.03 0.03 0.03 0.03 0.01 0.01 0.01 0.01 0.02 0.02 0.02 0.01 0.02 0.02 0.01 0.01 0.01 0.02 0.02 0.03
0.02 0.02 0.02 0.02 0.03 0.03 0.03 0.03 0.03 0.03 0.03 0.02 0.02 0.01 0.01 0.02 0.03 0.04 0.04 0.05 0.05 0.05 0.04 0.03 0.03 0.03 0.03 0.02 0.01 0.01 0.01 0.01 0.02 0.02 0.02 0.01 0.01 0.01 0.00 0.01 0.02 0.03 0.03
0.02 0.02 0.02 0.03 0.04 0.03 0.04 0.05 0.05 0.03 0.02 0.02 0.02 0.01 0.02 0.03 0.04 0.05 0.06 0.05 0.05 0.04 0.04 0.04 0.04 0.03 0.02 0.02 0.01 0.01 0.01 0.02 0.03 0.03 0.03 0.02 0.01 0.00 0.00 0.00 0.01 0.01 0.02
0.01 0.01 0.02 0.04 0.07 0.07 0.07 0.06 0.04 0.03 0.03 0.03 0.04 0.03 0.03 0.03 0.04 0.05 0.06 0.05 0.06 0.05 0.04 0.03 0.03 0.04 0.03 0.01 0.01 0.01 0.00 0.01 0.02 0.02 0.02 0.01 0.01 0.01 0.01 0.01 0.00 0.01 0.01
0.01 0.01 0.02 0.04 0.08 0.10 0.10 0.08 0.05 0.03 0.03 0.04 0.04 0.04 0.04 0.04 0.04 0.05 0.07 0.08 0.08 0.07 0.06 0.05 0.05 0.05 0.04 0.03 0.01 0.01 0.01 0.01 0.01 0.01 0.01 0.01 0.01 0.01 0.01 0.01 0.01 0.01 0.02
0.02 0.03 0.03 0.04 0.06 0.06 0.06 0.06 0.05 0.03 0.03 0.04 0.05 0.05 0.05 0.05 0.04 0.04 0.04 0.05 0.07 0.08 0.06 0.04 0.04 0.04 0.05 0.03 0.02 0.01 0.01 0.01 0.01 0.01 0.01 0.01 0.01 0.01 0.00 0.01 0.01 0.01 0.02
0.04 0.04 0.04 0.04 0.04 0.04 0.05 0.04 0.04 0.04 0.04 0.05 0.06 0.05 0.05 0.05 0.05 0.04 0.04 0.03 0.03 0.05 0.06 0.05 0.03 0.03 0.03 0.02 0.01 0.01 0.01 0.01 0.01 0.01 0.02 0.02 0.02 0.01 0.01 0.01 0.02 0.02 0.02
0.04 0.04 0.03 0.02 0.03 0.03 0.03 0.03 0.04 0.04 0.05 0.06 0.06 0.05 0.05 0.05 0.04 0.04 0.04 0.03 0.02 0.03 0.04 0.05 0.04 0.02 0.01 0.01 0.00 0.00 0.00 0.00 0.00 0.00 0.02 0.02 0.02 0.02 0.01 0.02 0.03 0.04 0.04
MSLP
1011.21 1011.65 1011.97 1012.16 1012.26 1012.30 1012.32 1012.35 1012.38 1012.40 1012.37 1012.26 1012.03 1011.68 1011.21 1010.64 1010.04 1009.46 1008.93 1008.51 1008.19 1007.96 1007.79 1007.64 1007.46 1007.21 1006.86 1006.43 1005.92 1005.38 1004.84 1004.38 1004.03 1003.83 1003.79 1003.92 1004.17 1004.53 1004.93 1005.34 1005.70 1006.01 1006.24
1011.07 1011.64 1012.04 1012.26 1012.34 1012.33 1012.27 1012.23 1012.22 1012.24 1012.25 1012.20 1012.05 1011.77 1011.34 1010.78 1010.15 1009.49 1008.89 1008.38 1007.99 1007.72 1007.54 1007.41 1007.26 1007.04 1006.73 1006.31 1005.81 1005.25 1004.70 1004.23 1003.89 1003.71 1003.72 1003.89 1004.20 1004.60 1005.02 1005.42 1005.74 1005.98 1006.12
1010.82 1011.50 1011.98 1012.24 1012.31 1012.26 1012.14 1012.04 1012.00 1012.02 1012.06 1012.07 1012.00 1011.79 1011.41 1010.87 1010.22 1009.53 1008.86 1008.28 1007.83 1007.51 1007.31 1007.17 1007.02 1006.81 1006.51 1006.08 1005.56 1004.99 1004.43 1003.96 1003.63 1003.49 1003.55 1003.80 1004.18 1004.64 1005.11 1005.53 1005.85 1006.04 1006.13
1010.53 1011.28 1011.83 1012.13 1012.21 1012.13 1011.97 1011.83 1011.76 1011.77 1011.84 1011.91 1011.90 1011.76 1011.45 1010.96 1010.32 1009.61 1008.91 1008.28 1007.77 1007.40 1007.16 1006.98 1006.81 1006.58 1006.25 1005.80 1005.25 1004.64 1004.05 1003.57 1003.25 1003.14 1003.25 1003.56 1004.02 1004.55 1005.08 1005.54 1005.88 1006.08 1006.15
1010.26 1011.05 1011.65 1011.98 1012.08 1011.99 1011.81 1011.63 1011.54 1011.55 1011.63 1011.74 1011.80 1011.73 1011.49 1011.05 1010.46 1009.76 1009.05 1008.40 1007.85 1007.44 1007.15 1006.93 1006.71 1006.44 1006.05 1005.55 1004.94 1004.29 1003.66 1003.15 1002.82 1002.71 1002.84 1003.19 1003.70 1004.29 1004.87 1005.39 1005.77 1006.01 1006.10
1010.05 1010.86 1011.49 1011.86 1011.97 1011.89 1011.70 1011.51 1011.39 1011.39 1011.49 1011.62 1011.73 1011.72 1011.55 1011.18 1010.64 1009.99 1009.30 1008.65 1008.09 1007.65 1007.31 1007.04 1006.77 1006.43 1005.99 1005.42 1004.76 1004.05 1003.36 1002.80 1002.43 1002.30 1002.41 1002.76 1003.27 1003.88 1004.50 1005.05 1005.49 1005.78 1005.93
1009.91 1010.73 1011.38 1011.78 1011.92 1011.85 1011.67 1011.47 1011.34 1011.32 1011.41 1011.56 1011.69 1011.73 1011.62 1011.32 1010.85 1010.26 1009.62 1009.00 1008.44 1007.99 1007.62 1007.31 1006.99 1006.61 1006.11 1005.49 1004.78 1004.01 1003.27 1002.65 1002.22 1002.03 1002.09 1002.38 1002.86 1003.44 1004.05 1004.62 1005.09 1005.44 1005.66
1009.82 1010.65 1011.33 1011.76 1011.94 1011.90 1011.72 1011.52 1011.37 1011.33 1011.40 1011.53 1011.68 1011.74 1011.68 1011.44 1011.05 1010.53 1009.95 1009.37 1008.85 1008.41 1008.04 1007.71 1007.37 1006.96 1006.43 1005.79 1005.04 1004.24 1003.47 1002.80 1002.30 1002.03 1002.01 1002.21 1002.60 1003.11 1003.66 1004.21 1004.68 1005.07 1005.36
1009.77 1010.61 1011.32 1011.79 1012.00 1011.99 1011.83 1011.62 1011.46 1011.39 1011.42 1011.53 1011.66 1011.73 1011.69 1011.51 1011.18 1010.73 1010.23 1009.71 1009.24 1008.84 1008.49 1008.18 1007.84 1007.44 1006.92 1006.29 1005.56 1004.76 1003.98 1003.28 1002.73 1002.39 1002.26 1002.35 1002.62 1003.01 1003.48 1003.95 1004.40 1004.79 1005.12
1009.74 1010.60 1011.33 1011.82 1012.07 1012.09 1011.94 1011.74 1011.56 1011.45 1011.44 1011.51 1011.60 1011.66 1011.63 1011.48 1011.21 1010.83 1010.40 1009.96 1009.55 1009.20 1008.90 1008.63 1008.34 1007.97 1007.51 1006.94 1006.26 1005.51 1004.76 1004.07 1003.50 1003.10 1002.88 1002.85 1002.99 1003.25 1003.59 1003.97 1004.35 1004.71 1005.04
1009.70 1010.59 1011.33 1011.85 1012.12 1012.16 1012.03 1011.83 1011.63 1011.49 1011.44 1011.45 1011.50 1011.54 1011.50 1011.37 1011.14 1010.82 1010.45 1010.08 1009.75 1009.46 1009.22 1009.01 1008.78 1008.49 1008.11 1007.62 1007.04 1006.39 1005.72 1005.08 1004.52 1004.09 1003.82 1003.69 1003.71 1003.83 1004.04 1004.30 1004.58 1004.88 1005.17
1009.69 1010.58 1011.33 1011.85 1012.13 1012.18 1012.06 1011.86 1011.65 1011.49 1011.39 1011.37 1011.37 1011.37 1011.32 1011.20 1010.99 1010.71 1010.41 1010.10 1009.82 1009.60 1009.42 1009.27 1009.11 1008.90 1008.62 1008.25 1007.79 1007.26 1006.69 1006.14 1005.64 1005.23 1004.92 1004.74 1004.66 1004.67 1004.75 1004.89 1005.06 1005.27 1005.50
1009.72 1010.60 1011.33 1011.83 1012.10 1012.15 1012.04 1011.85 1011.63 1011.45 1011.33 1011.27 1011.24 1011.21 1011.14 1011.01 1010.81 1010.57 1010.30 1010.04 1009.82 1009.64 1009.51 1009.41 1009.32 1009.19 1009.00 1008.73 1008.39 1007.99 1007.55 1007.10 1006.68 1006.32 1006.03 1005.82 1005.69 1005.61 1005.60 1005.63 1005.70 1005.81 1005.95
1009.81 1010.65 1011.34 1011.80 1012.05 1012.09 1011.99 1011.80 1011.60 1011.41 1011.28 1011.20 1011.14 1011.08 1010.99 1010.85 1010.66 1010.43 1010.19 1009.96 1009.77 1009.62 1009.53 1009.46 1009.41 1009.33 1009.22 1009.04 1008.80 1008.51 1008.18 1007.85 1007.53 1007.24 1006.99 1006.79 1006.64 1006.52 1006.44 1006.39 1006.37 1006.38 1006.44
1009.95 1010.75 1011.37 1011.79 1012.00 1012.03 1011.93 1011.76 1011.57 1011.40 1011.27 1011.17 1011.09 1011.01 1010.91 1010.76 1010.57 1010.34 1010.12 1009.90 1009.73 1009.59 1009.51 1009.46 1009.42 1009.37 1009.29 1009.17 1009.00 1008.80 1008.56 1008.32 1008.09 1007.88 1007.69 1007.52 1007.38 1007.25 1007.13 1007.03 1006.95 1006.89 1006.87
1010.14 1010.87 1011.42 1011.78 1011.96 1011.97 1011.88 1011.73 1011.57 1011.42 1011.30 1011.20 1011.12 1011.02 1010.90 1010.73 1010.54 1010.32 1010.09 1009.89 1009.71 1009.59 1009.50 1009.44 1009.40 1009.35 1009.28 1009.18 1009.05 1008.89 1008.72 1008.54 1008.38 1008.23 1008.10 1007.98 1007.86 1007.74 1007.62 1007.49 1007.37 1007.26 1007.17
1010.34 1011.00 1011.48 1011.79 1011.93 1011.94 1011.86 1011.73 1011.60 1011.48 1011.37 1011.28 1011.19 1011.08 1010.94 1010.77 1010.56 1010.34 1010.11 1009.91 1009.74 1009.62 1009.52 1009.46 1009.40 1009.34 1009.26 1009.15 1009.02 1008.87 1008.73 1008.58 1008.46 1008.35 1008.26 1008.18 1008.09 1008.00 1007.88 1007.75 1007.61 1007.46 1007.34
1010.52 1011.11 1011.53 1011.79 1011.90 1011.91 1011.85 1011.75 1011.65 1011.55 1011.46 1011.38 1011.28 1011.16 1011.00 1010.81 1010.59 1010.37 1010.15 1009.96 1009.81 1009.69 1009.60 1009.53 1009.46 1009.38 1009.28 1009.16 1009.01 1008.85 1008.69 1008.55 1008.44 1008.34 1008.27 1008.21 1008.15 1008.07 1007.97 1007.85 1007.70 1007.54 1007.38
1010.64 1011.17 1011.55 1011.77 1011.88 1011.89 1011.85 1011.77 1011.70 1011.62 1011.54 1011.46 1011.35 1011.21 1011.03 1010.83 1010.60 1010.38 1010.17 1010.00 1009.87 1009.78 1009.71 1009.66 1009.60 1009.52 1009.41 1009.26 1009.09 1008.91 1008.72 1008.56 1008.42 1008.32 1008.24 1008.18 1008.13 1008.06 1007.97 1007.85 1007.70 1007.53 1007.36
1010.70 1011.19 1011.53 1011.73 1011.83 1011.86 1011.84 1011.79 1011.74 1011.68 1011.61 1011.51 1011.38 1011.22 1011.02 1010.80 1010.57 1010.35 1010.17 1010.03 1009.93 1009.88 1009.85 1009.84 1009.81 1009.74 1009.64 1009.49 1009.29 1009.08 1008.86 1008.66 1008.49 1008.35 1008.25 1008.17 1008.10 1008.04 1007.95 1007.83 1007.68 1007.51 1007.32
1010.72 1011.17 1011.49 1011.68 1011.79 1011.83 1011.83 1011.81 1011.77 1011.72 1011.65 1011.54 1011.39 1011.20 1010.98 1010.74 1010.51 1010.30 1010.13 1010.02 1009.97 1009.97 1010.01 1010.04 1010.06 1010.03 1009.94 1009.80 1009.60 1009.37 1009.12 1008.87 1008.65 1008.47 1008.33 1008.22 1008.13 1008.04 1007.95 1007.83 1007.69 1007.51 1007.31
1010.71 1011.14 1011.44 1011.64 1011.75 1011.81 1011.83 1011.83 1011.81 1011.76 1011.69 1011.56 1011.39 1011.18 1010.94 1010.68 1010.44 1010.24 1010.09 1010.02 1010.01 1010.07 1010.15 1010.25 1010.32 1010.33 1010.28 1010.15 1009.96 1009.71 1009.43 1009.15 1008.88 1008.65 1008.46 1008.31 1008.19 1008.09 1007.98 1007.86 1007.71 1007.53 1007.32
1010.72 1011.13 1011.42 1011.62 1011.75 1011.82 1011.87 1011.88 1011.87 1011.83 1011.75 1011.61 1011.43 1011.19 1010.93 1010.66 1010.41 1010.21 1010.08 1010.03 1010.07 1010.16 1010.30 1010.44 1010.55 1010.61 1010.59 1010.49 1010.30 1010.04 1009.74 1009.43 1009.12 1008.84 1008.61 1008.42 1008.27 1008.14 1008.03 1007.90 1007.75 1007.57 1007.36
1010.75 1011.15 1011.44 1011.64 1011.78 1011.88 1011.94 1011.97 1011.97 1011.93 1011.85 1011.71 1011.51 1011.26 1010.99 1010.71 1010.46 1010.26 1010.14 1010.10 1010.15 1010.27 1010.44 1010.61 1010.75 1010.84 1010.84 1010.75 1010.56 1010.30 1009.98 1009.64 1009.30 1008.98 1008.71 1008.49 1008.31 1008.17 1008.04 1007.92 1007.78 1007.60 1007.39
1010.81 1011.19 1011.48 1011.69 1011.85 1011.96 1012.04 1012.09 1012.10 1012.07 1011.98 1011.84 1011.64 1011.39 1011.12 1010.84 1010.59 1010.39 1010.27 1010.24 1010.29 1010.41 1010.58 1010.76 1010.90 1010.99 1011.00 1010.91 1010.72 1010.45 1010.12 1009.75 1009.39 1009.04 1008.74 1008.49 1008.30 1008.15 1008.02 1007.90 1007.77 1007.61 1007.40
1010.88 1011.25 1011.54 1011.76 1011.93 1012.05 1012.14 1012.20 1012.22 1012.20 1012.12 1011.98 1011.79 1011.55 1011.29 1011.02 1010.78 1010.59 1010.47 1010.43 1010.48 1010.59 1010.74 1010.90 1011.03 1011.10 1011.09 1010.98 1010.78 1010.49 1010.15 1009.77 1009.38 1009.02 1008.71 1008.44 1008.24 1008.08 1007.96 1007.85 1007.73 1007.59 1007.39
Thickness
5781 5778 5772 5768 5763 5758 5753 5750 5746 5744 5741 5738 5734 5732 5730 5731 5730 5729 5727 5726 5724 5722 5720 5718 5716 5715 5712 5711 5709 5706 5704 5703 5703 5699 5697 5698 5701 5701 5702 5702 5702 5701 5701
5776 5772 5768 5764 5759 5754 5750 5747 5744 5741 5739 5736 5733 5731 5729 5728 5728 5727 5725 5723 5721 5719 5718 5715 5713 5711 5708 5706 5705 5702 5699 5698 5698 5693 5688 5685 5688 5692 5697 5697 5696 5697 5696
5772 5768 5763 5759 5757 5752 5749 5746 5742 5739 5736 5734 5732 5730 5727 5725 5724 5722 5721 5720 5717 5715 5714 5712 5710 5708 5705 5703 5701 5699 5696 5692 5693 5692 5686 5680 5677 5680 5686 5688 5690 5691 5690
5772 5767 5763 5756 5754 5750 5748 5744 5740 5737 5734 5733 5730 5725 5721 5719 5719 5719 5718 5717 5715 5713 5711 5709 5707 5704 5702 5700 5698 5697 5694 5691 5687 5687 5686 5684 5680 5674 5673 5678 5683 5684 5685
5771 5766 5762 5757 5754 5751 5747 5742 5738 5735 5733 5731 5728 5724 5721 5719 5718 5717 5715 5713 5712 5710 5708 5706 5704 5701 5699 5697 5695 5693 5691 5688 5685 5683 5681 5680 5679 5676 5670 5668 5672 5676 5679
5770 5765 5761 5756 5752 5749 5745 5740 5736 5732 5730 5728 5726 5722 5719 5717 5715 5713 5710 5709 5708 5707 5705 5703 5701 5698 5696 5694 5691 5690 5687 5685 5683 5681 5679 5677 5674 5672 5670 5667 5666 5667 5672
5765 5760 5755 5751 5748 5745 5742 5738 5733 5729 5727 5725 5722 5720 5718 5715 5712 5709 5707 5706 5705 5703 5702 5701 5698 5696 5694 5692 5689 5686 5684 5682 5679 5678 5677 5676 5674 5673 5670 5666 5664 5664 5667
5760 5755 5752 5748 5745 5742 5739 5735 5730 5726 5724 5721 5719 5718 5716 5713 5711 5709 5707 5704 5702 5701 5700 5698 5695 5693 5691 5689 5686 5682 5680 5679 5676 5675 5673 5672 5671 5671 5669 5665 5661 5658 5660
5756 5753 5750 5747 5743 5739 5735 5732 5727 5723 5721 5720 5717 5715 5713 5711 5709 5707 5705 5702 5700 5699 5696 5694 5691 5689 5687 5685 5682 5679 5677 5675 5673 5671 5670 5669 5668 5668 5667 5665 5662 5656 5652
5755 5751 5747 5743 5741 5737 5733 5730 5726 5721 5719 5718 5716 5715 5712 5710 5707 5705 5701 5699 5697 5695 5693 5690 5687 5685 5683 5681 5678 5676 5674 5672 5670 5668 5666 5664 5664 5664 5663 5662 5660 5657 5652
5752 5749 5745 5742 5739 5735 5731 5726 5724 5721 5717 5716 5714 5712 5710 5707 5704 5701 5699 5696 5694 5692 5690 5687 5685 5683 5680 5678 5676 5673 5672 5669 5666 5664 5662 5660 5659 5658 5658 5657 5655 5653 5650
5751 5748 5744 5740 5735 5731 5728 5724 5721 5719 5716 5714 5712 5709 5707 5704 5701 5699 5696 5694 5691 5689 5687 5685 5682 5681 5679 5676 5674 5671 5669 5666 5663 5661 5658 5656 5656 5654 5653 5651 5650 5647 5645
5746 5743 5739 5735 5731 5727 5724 5721 5719 5717 5715 5712 5709 5705 5702 5700 5697 5696 5694 5691 5688 5686 5684 5682 5679 5677 5675 5673 5671 5669 5666 5664 5661 5659 5656 5654 5652 5649 5648 5646 5644 5642 5640
5740 5737 5733 5729 5726 5723 5720 5718 5716 5714 5712 5709 5706 5702 5699 5697 5694 5693 5691 5688 5685 5683 5681 5679 5677 5674 5672 5670 5668 5666 5664 5661 5659 5657 5654 5651 5648 5645 5643 5641 5639 5636 5633
5733 5730 5727 5724 5722 5719 5717 5715 5712 5711 5709 5705 5702 5699 5696 5694 5692 5689 5687 5686 5683 5681 5678 5676 5673 5671 5669 5666 5664 5662 5661 5658 5655 5653 5650 5648 5645 5642 5639 5637 5634 5631 5628
5727 5726 5723 5720 5717 5714 5712 5710 5709 5707 5705 5701 5698 5696 5694 5690 5688 5685 5684 5682 5679 5677 5674 5672 5669 5666 5664 5660 5658 5656 5656 5654 5651 5648 5646 5643 5641 5638 5635 5632 5630 5627 5624
5723 5720 5717 5715 5712 5711 5708 5706 5705 5703 5700 5697 5695 5693 5690 5687 5685 5683 5680 5677 5675 5673 5671 5668 5664 5660 5657 5655 5653 5652 5650 5649 5647 5645 5642 5639 5638 5634 5631 5629 5626 5624 5621
5719 5716 5713 5710 5709 5707 5704 5702 5700 5698 5695 5692 5690 5689 5687 5684 5682 5679 5676 5674 5671 5669 5667 5665 5662 5658 5654 5651 5649 5647 5645 5645 5643 5641 5639 5635 5632 5629 5626 5624 5622 5620 5619
5716 5713 5711 5707 5704 5702 5699 5696 5693 5691 5689 5687 5685 5684 5683 5680 5677 5674 5672 5670 5667 5665 5663 5661 5658 5655 5650 5647 5645 5642 5642 5640 5639 5638 5634 5631 5627 5623 5620 5618 5616 5615 5614
5713 5709 5707 5703 5698 5696 5694 5690 5687 5685 5683 5682 5682 5681 5679 5676 5673 5671 5669 5667 5664 5662 5660 5658 5656 5652 5649 5644 5641 5638 5638 5636 5635 5633 5630 5626 5623 5619 5616 5613 5611 5609 5609
5708 5706 5702 5697 5693 5692 5688 5684 5682 5680 5680 5680 5678 5676 5675 5673 5671 5669 5666 5663 5661 5659 5657 5655 5653 5651 5647 5642 5638 5635 5633 5631 5630 5628 5626 5623 5619 5615 5612 5609 5608 5606 5605
5702 5699 5695 5691 5690 5687 5683 5679 5677 5677 5677 5676 5674 5672 5671 5670 5669 5665 5662 5660 5657 5654 5652 5651 5649 5648 5645 5640 5635 5631 5628 5625 5623 5623 5622 5619 5614 5612 5608 5606 5605 5603 5601
5695 5693 5689 5685 5684 5682 5679 5675 5674 5675 5673 5671 5669 5667 5666 5665 5663 5661 5658 5655 5653 5650 5649 5647 5646 5645 5643 5638 5633 5628 5625 5621 5618 5618 5616 5613 5610 5607 5606 5604 5602 5599 5598
5688 5686 5683 5679 5678 5677 5676 5673 5673 5671 5669 5666 5663 5662 5661 5660 5659 5657 5655 5652 5650 5647 5646 5644 5643 5641 5638 5634 5629 5625 5621 5617 5614 5612 5611 5610 5608 5605 5603 5602 5601 5599 5597
5683 5680 5677 5675 5673 5673 5671 5669 5668 5666 5663 5660 5658 5657 5657 5656 5655 5653 5650 5649 5646 5643 5640 5638 5637 5634 5631 5627 5622 5619 5617 5614 5610 5607 5607 5606 5606 5604 5602 5602 5601 5599 5596
5676 5674 5672 5670 5669 5668 5666 5664 5663 5660 5657 5654 5652 5652 5651 5651 5650 5649 5646 5643 5640 5637 5635 5632 5630 5627 5624 5621 5618 5614 5611 5608 5604 5602 5603 5603 5603 5602 5601 5599 5597 5595 5593